Tracking 27122 objects as of 25-Mar-2023
HD Live streaming from Space Station
objects crossing your sky now

STARLINK-4282

Track STARLINK-4282 now!
10-day predictions
STARLINK-4282 is classified as:


NORAD ID: 53019
Int'l Code: 2022-076AK
Perigee: 545.8 km
Apogee: 547.8 km
Inclination: 53.2 °
Period: 95.4 minutes
Semi major axis: 6917 km
RCS: Unknown
Launch date: July 7, 2022
Source: United States (US)
Launch site: AIR FORCE EASTERN TEST RANGE (AFETR)
Your satellite tracking list
Your tracking list is empty




NASA's NSSDC Master Catalog

Two Line Element Set (TLE):
1 53019U 22076AK  23083.70383648  .00010011  00000-0  64555-3 0  9991
2 53019  53.2153 256.8562 0001439 104.4794 255.6358 15.08877307 40261
Source of the keplerian elements: AFSPC